Location: Caoba
(9.7667°N, 67.4833°W)
Time: 20:40:09
(UTC+00:00)

GOES 2 Rocket - Pass Details

Date: 10 December 2024
Orbit: 569 x 1662 km, 28.4° (Epoch: 14 January)

Event Time Altitude Azimuth Distance (km) Brightness Sun altitude
Exits shadow 09:50:18 14° 313° (NW) 1,637 4.7 -11.2°
Maximum altitude 09:53:48 53° 28° (NNE) 756 3.5 -10.4°
Drops below altitude 10° 09:58:34 10° 105° (ESE) 2,160 7.5 -9.3°
Sets 10:01:18 0° 110° (ESE) 3,228 9.2 -8.7°
